Starlink 35805

operational
NORAD ID: 66369 Int'l Des: 2025-254 Owner: SPXS Country: US Constellation: starlink
LEOCIRCULAR

About Starlink 35805

Description loading...

Live Position

Loading 3D Globe...

Upcoming Passes

Altitude History

Altitude vs Time

uPlot chart will show altitude changes over time

Two-Line Element Set

1 66369C 25254M 25311.11229167 .00524340 00000+0 77869-3 0 3114
2 66369 53.1602 93.7508 0009194 265.2209 87.6680 16.03533983 17
Epoch: Nov 7, 2025 • Age: 18 hours

Current Status

Altitude 266.5 km
Velocity 7.75 km/s
Sub-Earth Point 23.98°N, 70.69°W
Launch Date Nov 6, 2025
Age 1 days
Type internet

Technical Details

Classification Payload
Mass 575.00 kg
Dry Mass 530.00 kg
Total Mass 575.00 kg
Length 0.30 m
Diameter 4.10 m
Span 29.00 m
Shape Box + pan
Manufacturer SPXS
Bus Type Starlink V2MO
Phase Status In Orbit
Owner/State SPXS/US

Large Constellations

Loading constellations...